Regional Weather Roundup
Issued by NWS

Home | Current Version | Previous Version | Text Only | Print | Product List | Glossary Off
Versions: 1 2 3 4 5 6 7 8 9 10 11 12 13 14 15 16 17 18 19 20 21 22 23 24 25 26 27 28 29 30 31 32 33 34 35 36 37 38 39 40 41 42 43 44 45 46 47 48 49 50

000
ASUS43 KIND 022359
RWRIN

WEATHER ROUNDUP FOR INDIANA
NATIONAL WEATHER SERVICE INDIANAPOLIS IN
800 PM EDT THU JUL 02 2015

NOTE: "FAIR" INDICATES FEW OR NO CLOUDS BELOW 12,000 FEET WITH NO
SIGNIFICANT WEATHER AND/OR OBSTRUCTIONS TO VISIBILITY.

* - STATION DOES NOT REPORT WEATHER SUCH AS PRECIPITATION OR FOG.

+ - STATION NOT QUALITY CONTROLLED BY THE NATIONAL WEATHER SERVICE.
    USE DATA WITH CAUTION...ESPECIALLY DEWPOINT AND RELATIVE
    HUMIDITY OBSERVATIONS.

INZ001>003-010>013-019-020-030100-
NORTHWEST INDIANA

CITY           SKY/WX    TMP DP  RH WIND       PRES   REMARKS
GARY /AIRPORT/ PTSUNNY   61  57  88 N12       29.98S
RENSSELAER +   PTSUNNY   72  57  60 NE8       29.93R

$$

LMZ046-743>745-030100-
SOUTHERN LAKE MICHIGAN

STATION/POSITION TIME  TEMP    WIND        PRES    WAVE
                       AIR SEA DIR/SP/G            HT
                 (UTC) (F)     (DEG/KT/KT) (MB)    (FT)
BURNS HARBOR     2300   63      30/ 11/ 13 1015.2S
MICHIGAN CITY    2300   62      20/ 18/ 20   N/A
5NW MICH CITY    2300   63 64   40/ 16/ 19   N/A     4

$$

INZ004-005-014>016-021>024-030100-
NORTH CENTRAL INDIANA

CITY           SKY/WX    TMP DP  RH WIND       PRES   REMARKS
ELKHART        SUNNY     72  52  49 E7        29.96R
GOSHEN         MOSUNNY   72  55  55 E7        29.95S
6HR MIN TEMP:  71; 6HR MAX TEMP:  75;

SOUTH BEND     SUNNY     72  54  53 NE7       29.96S
6HR MIN TEMP:  72; 6HR MAX TEMP:  75;


$$

INZ006>009-017-018-025>027-030100-
NORTHEAST INDIANA

CITY           SKY/WX    TMP DP  RH WIND       PRES   REMARKS
ANGOLA *+        N/A     72  64  78 NE7       29.95F
FORT WAYNE     PTSUNNY   73  57  57 E9        29.95R
6HR MIN TEMP:  73; 6HR MAX TEMP:  77;


$$

INZ028-029-035-036-043>045-051>053-030100-
WEST CENTRAL INDIANA

CITY           SKY/WX    TMP DP  RH WIND       PRES   REMARKS
CRAWFORDSVL +  PTSUNNY   73  59  61 NE10      29.88F
6HR MIN TEMP:  73; 6HR MAX TEMP:  76;

GREENCASTLE +  CLOUDY    75  61  60 NE10      29.88S
LAFAYETTE      MOSUNNY   73  62  68 NE9       29.89S
6HR MIN TEMP:  71; 6HR MAX TEMP:  77;

TERRE HAUTE    PTSUNNY   77  69  76 CALM      29.86S
6HR MIN TEMP:  75; 6HR MAX TEMP:  78;


$$

INZ030>032-037>040-046>048-054>057-064-065-030100-
CENTRAL INDIANA

CITY           SKY/WX    TMP DP  RH WIND       PRES   REMARKS
COLUMBUS       CLOUDY    75  66  73 E7        29.87
GREENWOOD *+   CLOUDY    75  61  60 E7        29.88S
INDIANAPOLIS   CLOUDY    77  61  57 E12       29.86S
6HR MIN TEMP:  76; 6HR MAX TEMP:  80;

-EAGLE CREEK   PTSUNNY   76  63  64 NE12      29.88R
6HR MIN TEMP:  75; 6HR MAX TEMP:  78;

KOKOMO *+      MOSUNNY   72  61  68 E9        29.91S
6HR MIN TEMP:  72; 6HR MAX TEMP:  75;

MT COMFORT *+  PTSUNNY   73  57  56 E9        29.89S
SHELBYVILLE    CLOUDY    76  66  71 E6        29.87F
6HR MIN TEMP:  76; 6HR MAX TEMP:  81;


$$

INZ033-034-041-042-049-050-058-059-030100-
EAST CENTRAL INDIANA

CITY           SKY/WX    TMP DP  RH WIND       PRES   REMARKS
MUNCIE         PTSUNNY   73  62  68 E12       29.92R
6HR MIN TEMP:  73; 6HR MAX TEMP:  77;


$$

INZ060-061-067>069-081>083-085>088-030100-
SOUTHWEST INDIANA

CITY           SKY/WX    TMP DP  RH WIND       PRES   REMARKS
EVANSVILLE     CLOUDY    77  70  79 NE9       29.84S
6HR MIN TEMP:  77; 6HR MAX TEMP:  82;

HUNTINGBURG *+ CLOUDY    73  70  88 CALM      29.84S
6HR MIN TEMP:  73; 6HR MAX TEMP:  79; 6HR PCP:  0.13;


$$

INZ062-063-066-070>080-084-089>092-030100-
SOUTH CENTRAL AND SOUTHEAST INDIANA

CITY           SKY/WX    TMP DP  RH WIND       PRES   REMARKS
BLOOMINGTON    CLOUDY    76  66  71 NE6       29.86F
6HR MIN TEMP:  76; 6HR MAX TEMP:  80;

MADISON *+     CLOUDY    72  68  88 CALM      29.89R
SEYMOUR +      CLOUDY    75  70  83 E8        29.86R

$$




USA.gov is the U.S. government's official web portal to all federal, state and local government web resources and services.